Wind_Speed
9 10 11 10 9 10 9 8 8 9 9 9 9 9 10 9 8 9 10 10 11 12 13 13 13 12 12 12 12 13 12 12 13 15 14 13 12 13 12 11 11 10 10 10 10 9 9 8 8 9 8 8 7 7 8 8 8 9 9 9 8 8 8 7 6 5 5 6 8 8 9 10 11 12 12 13 13 14 14 15 16 16 16 15 14
7 8 9 9 9 9 9 8 8 9 8 7 8 8 8 8 8 8 9 10 11 12 12 12 12 12 12 12 13 13 13 13 13 15 14 13 13 14 13 12 12 11 11 11 10 10 9 9 9 9 9 9 9 10 10 10 10 10 10 9 9 9 8 8 7 6 5 5 6 7 8 8 9 10 11 12 13 13 14 14 15 15 15 15 14
6 6 7 7 8 8 8 8 8 8 7 6 7 8 7 7 8 8 8 9 10 10 10 11 11 11 11 12 13 13 13 13 13 13 13 13 14 14 14 13 12 12 11 11 11 11 11 11 10 10 10 11 11 11 11 12 11 11 10 9 9 9 9 8 7 7 7 6 6 8 9 10 11 11 12 12 13 14 14 14 15 15 15 14 14
5 5 5 6 6 6 7 7 8 7 6 7 7 7 7 7 6 7 8 8 9 9 9 10 10 10 10 11 11 11 11 12 12 12 12 12 13 13 13 13 13 12 12 12 12 12 12 12 12 12 12 12 12 11 12 12 11 11 11 10 10 10 9 8 8 8 9 9 9 9 10 11 12 12 12 12 13 14 14 14 14 13 13 13 14
4 4 4 5 5 5 6 7 7 7 6 6 6 7 6 6 5 5 6 7 8 8 8 9 9 9 9 9 10 10 10 10 10 11 11 11 11 12 12 12 12 13 13 13 13 13 13 13 13 13 13 12 12 12 11 11 11 11 11 10 10 10 9 9 9 10 10 11 10 10 10 11 12 12 13 13 14 14 14 14 13 12 11 11 13
4 3 3 4 5 5 6 7 7 6 6 6 6 6 5 4 4 5 6 6 7 7 8 8 8 8 8 8 8 9 9 9 9 10 10 10 10 10 10 10 11 12 13 14 14 14 14 14 13 13 13 13 12 12 12 11 10 10 10 10 10 9 10 10 10 10 11 11 11 10 11 12 12 13 14 14 14 14 15 15 15 14 12 11 11
4 3 3 3 4 5 6 6 7 7 6 6 6 5 4 4 5 5 5 6 6 6 6 6 6 7 7 7 8 8 8 9 9 9 9 9 9 9 9 9 10 11 11 12 13 14 14 13 13 13 13 13 13 13 12 11 10 10 10 10 10 9 10 10 11 11 11 11 11 11 11 12 13 13 14 14 15 14 14 14 14 14 13 12 11
4 4 3 3 4 5 6 6 7 7 7 7 6 6 5 5 6 6 6 6 6 6 5 5 5 6 7 7 7 8 8 8 8 9 8 8 8 8 9 9 9 9 10 11 11 12 12 13 13 13 12 12 12 12 12 11 11 10 10 10 10 9 8 9 10 10 10 10 11 11 11 12 12 13 14 15 15 15 14 14 14 13 13 12 12
4 4 3 3 4 5 6 6 7 7 7 7 6 6 5 6 6 7 7 7 6 6 5 4 4 5 6 6 7 7 8 8 8 8 8 8 8 8 8 8 8 9 9 9 9 10 11 11 12 12 11 11 11 12 12 12 11 11 10 11 13 11 7 7 9 9 9 10 10 11 12 13 13 14 15 15 16 16 15 15 15 14 13 12 12
4 4 3 3 5 5 6 6 7 7 7 8 8 7 7 7 7 8 8 8 7 7 6 5 5 5 6 6 7 8 8 8 8 7 8 8 8 8 8 8 8 9 9 9 9 9 9 10 10 11 11 11 11 11 11 11 11 11 11 12 14 13 8 7 8 9 10 11 11 12 13 14 14 15 15 15 15 16 16 16 16 16 15 14 13
4 3 3 3 5 6 6 6 7 7 8 9 9 9 8 8 9 9 9 8 8 8 8 7 7 7 7 7 7 8 8 8 8 8 9 9 9 8 7 7 8 9 9 9 9 9 9 9 9 10 10 11 10 10 10 10 10 10 11 11 12 12 10 8 8 9 10 11 12 13 14 14 14 15 15 15 16 16 16 16 16 16 16 16 16
4 3 3 3 4 5 6 6 6 7 8 9 9 9 8 9 9 9 9 9 8 8 8 9 8 8 8 8 8 8 8 8 8 9 9 9 9 8 7 6 7 7 8 9 9 9 10 9 9 9 10 10 10 10 9 9 9 9 10 11 11 10 10 8 8 9 9 10 11 12 13 13 14 14 14 15 15 16 16 16 16 16 16 17 17
4 3 2 2 3 4 5 5 5 6 7 8 8 8 8 9 9 8 8 8 7 8 9 9 9 8 8 8 8 7 7 7 8 8 9 9 8 7 6 7 7 6 7 8 9 9 10 10 10 10 10 10 11 11 10 9 9 10 10 10 10 10 9 8 7 8 8 9 10 10 10 11 12 12 13 13 14 14 15 15 15 15 16 16 17
4 3 2 2 3 3 4 4 4 5 6 6 6 7 8 8 8 8 8 7 7 8 9 8 8 7 7 7 7 7 6 6 6 7 7 8 7 6 5 6 6 7 8 8 8 10 11 11 11 10 10 11 11 11 10 10 9 10 10 11 10 10 10 9 9 9 9 9 9 9 9 10 10 11 11 12 12 13 13 14 14 14 15 16 17
4 3 2 1 2 2 3 3 3 3 4 4 5 5 7 8 8 7 7 7 7 7 7 7 7 6 6 6 6 6 5 5 5 6 6 6 6 6 5 5 6 7 7 8 9 10 11 11 11 11 11 10 10 10 10 10 10 10 10 11 11 11 11 11 10 11 10 10 10 10 11 11 11 11 11 11 12 12 13 14 14 15 16 16 17
4 3 2 1 1 1 1 2 2 3 3 3 4 4 6 7 7 7 7 7 7 6 6 6 6 6 6 6 6 6 6 6 6 6 6 6 5 5 5 5 5 5 6 7 8 10 10 11 11 11 11 11 10 10 10 10 10 10 10 10 10 10 10 11 11 11 11 12 12 13 13 13 14 14 14 14 14 14 14 14 15 15 16 17 18
4 3 2 2 1 1 0 1 2 3 3 3 3 4 5 6 6 6 7 7 6 6 6 6 6 6 6 6 6 6 6 6 6 6 6 6 6 6 6 6 5 4 5 6 8 9 10 11 11 11 11 11 10 9 9 9 9 9 9 9 9 9 9 10 10 11 11 12 12 13 14 15 16 16 17 18 18 18 18 18 18 18 18 18 19
5 4 2 2 2 1 1 1 2 3 3 3 3 3 4 5 5 6 6 6 6 6 6 6 6 5 5 5 5 5 5 5 5 5 5 6 6 6 6 6 6 6 5 5 7 10 11 12 12 12 11 11 10 10 9 9 8 8 8 8 8 8 8 8 9 9 10 11 12 13 14 16 17 18 18 19 20 21 22 23 23 23 23 23 23
6 4 3 2 1 1 0 0 1 2 1 2 3 3 3 4 4 5 5 5 6 6 7 6 5 4 4 4 5 5 5 5 5 5 5 6 6 7 6 6 6 7 7 7 8 10 11 11 12 12 12 11 11 10 9 9 8 8 7 7 7 7 7 7 7 8 10 11 12 14 15 16 17 18 20 21 22 23 24 25 26 26 27 27 28
6 5 3 2 1 1 0 1 1 1 0 2 2 2 2 2 3 4 5 5 6 8 8 6 5 4 4 5 5 6 6 6 5 5 6 6 6 6 6 6 6 7 8 9 11 11 10 10 10 11 11 11 10 8 7 7 6 6 6 6 7 7 7 7 8 8 10 11 12 13 15 16 17 19 20 21 22 23 24 25 26 27 28 29 30
6 5 4 3 2 0 0 1 1 1 1 2 2 2 1 1 2 4 5 6 7 9 8 7 5 5 5 5 5 6 7 6 6 6 6 6 6 6 6 6 7 6 7 8 11 12 10 9 10 10 11 10 10 8 7 6 6 6 6 6 7 7 8 8 8 9 10 12 13 14 16 17 18 20 21 22 22 23 24 25 26 27 27 28 29
7 6 5 4 2 1 1 2 2 2 2 3 3 2 1 2 2 3 4 6 8 9 8 6 5 5 5 5 6 6 6 7 7 7 7 8 8 7 7 7 8 8 7 7 9 11 12 12 12 12 12 12 11 10 9 8 8 7 7 7 8 8 9 10 11 12 13 15 16 17 19 20 21 23 23 24 24 24 24 25 25 25 25 26 28
8 7 7 5 4 3 2 3 3 4 4 4 4 3 3 3 2 2 4 5 7 9 8 5 4 5 5 5 5 6 6 6 6 6 7 8 9 8 8 8 8 9 9 9 9 10 12 14 14 14 14 14 13 12 11 10 10 10 9 9 10 10 11 12 14 15 17 18 20 21 22 24 25 26 26 27 26 26 26 25 25 25 26 26 27
9 9 7 6 5 4 3 3 4 4 5 5 5 5 4 4 4 3 3 5 7 9 8 6 4 4 5 5 5 5 6 6 6 6 6 7 9 10 10 10 10 10 10 10 10 10 11 12 13 14 14 14 14 14 13 12 11 12 11 11 11 12 13 15 16 17 19 20 22 23 25 26 27 27 27 27 27 27 27 27 28 28 28 27 28
10 9 8 7 6 5 4 4 4 5 6 6 6 7 6 6 5 4 3 4 6 8 8 7 5 5 5 6 6 7 7 7 7 7 7 8 10 11 12 12 11 12 12 12 12 12 12 12 12 12 13 14 13 13 14 14 13 13 13 12 13 14 15 16 18 19 20 21 22 24 25 26 27 27 27 27 27 28 29 29 29 29 29 29 30
10 9 9 8 8 7 6 5 5 5 5 6 7 8 8 8 7 6 4 4 5 8 9 8 7 6 6 7 8 9 9 9 8 8 9 10 11 13 14 14 14 13 13 13 13 14 14 14 14 13 13 12 12 12 13 13 14 14 14 15 15 16 17 18 19 20 21 22 23 24 25 25 25 26 27 28 29 30 30 30 30 29 29 30 32
10 9 9 9 9 9 8 7 6 5 5 5 6 7 8 9 9 8 7 5 5 7 9 8 7 7 6 7 8 9 9 10 10 10 10 11 12 13 15 15 15 15 14 14 14 14 14 13 13 12 12 12 12 12 12 13 14 14 15 16 17 18 19 20 21 21 22 23 24 24 25 25 25 26 27 29 30 31 31 31 31 31 32 33 34
10 10 10 10 10 10 9 9 8 7 6 6 6 7 8 9 10 10 9 8 6 6 8 9 8 7 6 6 6 8 8 9 10 11 12 13 13 14 14 15 15 15 15 15 15 14 14 14 13 13 13 13 13 13 13 13 14 15 16 17 19 20 21 21 22 23 24 24 25 26 25 24 25 27 29 31 32 33 34 34 34 35 35 36 36
10 9 10 10 11 11 11 10 10 9 8 8 7 7 8 9 10 10 10 10 8 7 8 9 9 8 7 6 6 7 8 9 10 12 13 14 14 15 15 15 16 16 16 16 15 15 15 15 16 16 16 16 15 15 15 16 16 17 18 19 20 21 22 23 24 25 25 26 27 26 25 25 26 28 31 33 35 36 37 38 38 38 39 40 39
10 10 10 11 11 12 12 12 12 11 10 10 9 8 8 9 10 10 10 11 11 9 8 9 10 10 9 8 6 6 7 8 10 12 13 14 15 15 15 16 16 17 18 18 17 16 15 15 15 15 15 16 17 17 17 18 18 19 20 21 22 23 24 24 25 26 27 27 27 27 26 26 27 29 32 35 37 39 40 41 41 42 42 42 40
12 12 12 12 12 13 14 14 13 13 13 12 12 11 10 10 10 11 11 11 12 12 10 9 10 11 11 10 9 8 8 8 10 12 13 14 15 15 15 16 16 17 19 19 19 18 17 16 16 15 15 16 17 18 19 20 20 20 21 23 23 24 25 26 27 27 28 28 28 27 26 27 28 30 33 36 39 41 42 43 44 44 44 43 41
14 14 14 15 15 15 15 16 16 16 15 15 15 14 13 12 12 12 12 12 12 13 12 11 11 12 13 12 11 10 10 9 10 11 13 14 15 15 16 17 17 18 18 18 18 18 18 17 17 16 17 17 17 18 20 22 23 23 23 24 25 26 26 27 27 28 28 29 28 27 27 28 29 31 33 36 39 42 44 45 46 45 45 43 40
16 16 17 17 18 18 18 18 18 18 18 18 17 17 16 15 15 14 13 13 13 14 14 13 12 12 14 14 14 14 13 12 11 12 13 14 15 16 17 17 18 18 18 18 18 18 18 18 17 16 17 18 19 20 20 22 25 26 25 25 26 27 27 28 28 28 29 29 29 27 27 28 30 31 34 37 40 42 44 45 46 45 44 42 39
18 19 19 20 20 21 21 21 20 21 21 21 20 19 19 18 17 17 16 15 15 15 15 15 15 14 14 15 16 16 15 15 14 14 14 14 15 16 17 18 18 19 19 18 18 18 18 18 18 18 17 18 20 22 23 24 26 27 28 28 28 28 28 28 28 29 30 30 30 28 28 29 31 32 34 37 40 42 44 44 45 44 43 41 38
19 19 20 20 21 22 23 23 23 23 22 23 22 21 21 21 20 19 19 18 18 17 16 16 17 16 16 16 17 17 17 17 16 15 15 15 16 16 17 18 18 19 19 19 19 18 18 18 18 19 19 20 21 23 25 26 28 28 29 30 30 30 30 30 29 29 30 30 30 29 29 30 31 32 34 36 39 41 42 43 44 43 42 40 38
17 17 18 19 20 21 22 23 24 24 24 24 24 23 22 23 22 21 21 20 20 19 19 18 18 18 17 18 18 18 18 18 18 17 17 17 17 17 18 18 18 18 19 20 20 19 19 19 18 18 19 20 22 23 24 26 28 29 30 31 31 31 31 31 31 31 31 31 30 29 30 31 32 33 34 36 38 40 41 42 43 42 41 39 38
15 16 17 17 18 20 21 22 24 25 25 25 25 24 23 23 24 23 22 22 22 21 21 20 19 19 19 19 20 19 19 19 19 19 18 19 19 18 18 18 19 19 18 19 20 20 20 20 20 19 19 20 21 22 24 25 26 28 30 31 32 32 32 32 32 32 32 31 31 30 31 32 33 34 35 36 37 39 40 42 42 41 40 39 38
15 16 17 17 17 17 19 20 21 23 24 25 25 25 24 23 23 24 23 23 23 23 22 21 21 20 20 20 21 21 20 20 21 21 20 20 20 20 20 19 19 19 19 19 20 20 21 21 21 21 21 21 22 22 24 25 26 28 29 31 32 33 34 34 33 33 33 32 31 31 32 33 34 35 36 37 38 39 41 42 41 40 39 39 39
16 16 16 16 15 15 16 17 17 19 21 22 23 24 24 23 23 24 24 23 23 23 23 23 22 21 21 21 22 22 21 21 22 23 22 22 21 21 21 21 21 20 20 20 21 21 21 22 23 23 23 23 23 24 24 25 26 28 29 30 32 33 35 35 35 34 34 34 33 32 32 33 34 36 37 38 38 39 40 42 42 40 39 39 40
16 16 15 14 14 14 14 14 14 14 16 19 20 21 22 23 22 23 24 24 23 23 23 24 24 23 22 22 23 23 22 23 24 25 25 24 23 22 23 23 23 21 21 21 22 22 23 23 24 25 25 25 25 25 26 26 27 29 30 31 33 34 35 36 36 36 37 37 36 35 34 34 34 35 37 38 38 39 40 41 41 40 39 39 41
16 15 14 13 13 13 12 12 13 12 12 14 16 18 20 22 23 23 25 26 25 24 24 24 25 25 24 24 24 24 24 24 25 26 27 26 25 24 24 25 25 24 23 23 23 23 24 25 26 26 27 27 27 27 28 29 29 30 31 32 34 35 36 37 37 38 38 39 39 39 38 36 36 36 37 38 39 39 40 41 41 39 39 40 41
16 15 13 13 13 13 12 11 12 11 10 10 12 14 16 19 21 22 24 26 26 26 25 25 25 26 26 26 25 25 25 25 25 26 27 28 27 26 26 27 26 26 25 25 24 25 25 26 28 29 29 30 30 29 29 31 31 32 33 34 35 36 38 38 39 39 39 40 42 42 41 40 38 38 38 38 39 39 40 41 41 39 39 39 40
16 15 14 13 12 12 12 11 11 11 10 10 10 11 13 14 16 18 20 22 24 25 25 24 25 26 27 27 27 26 26 26 26 26 27 29 29 28 28 28 28 28 28 27 27 27 27 27 29 30 30 32 33 32 31 32 33 34 34 35 36 37 38 39 40 41 41 41 43 43 43 42 40 39 39 38 39 40 40 41 41 40 39 39 40
16 15 14 13 13 13 12 11 11 10 10 10 10 11 12 14 15 16 17 18 20 21 22 23 24 25 26 27 27 27 26 26 26 26 27 29 30 30 29 30 30 30 30 30 30 30 29 29 31 32 32 33 35 35 34 35 36 36 37 37 38 38 38 39 41 42 42 42 43 43 43 43 41 40 40 39 39 40 41 42 43 42 40 40 40
17 16 15 14 14 14 13 12 12 11 11 10 10 11 13 14 16 17 17 17 18 18 19 21 22 23 24 25 26 27 27 26 26 26 27 28 30 32 32 31 31 31 31 32 32 33 32 32 32 33 35 36 37 37 37 38 39 40 40 40 40 40 40 40 41 42 43 43 43 42 43 45 44 42 41 39 38 39 40 42 43 41 40 39 39
17 16 16 16 16 15 15 15 14 12 11 11 11 11 13 15 17 18 18 18 17 18 19 20 21 22 22 23 25 26 27 27 25 26 27 28 30 33 34 34 32 32 32 33 33 34 35 35 35 35 37 39 40 40 40 40 41 43 43 43 43 43 42 42 42 43 44 45 44 44 47 50 49 44 42 40 39 39 40 41 42 40 38 38 38
18 18 18 18 18 17 18 17 16 15 13 13 13 13 15 17 19 20 20 20 19 19 19 21 22 23 24 25 26 26 28 28 27 26 27 28 30 33 35 35 34 33 34 33 33 35 37 38 38 38 39 41 43 44 43 42 43 45 47 46 46 46 45 44 44 45 46 46 48 49 52 54 52 46 42 41 40 39 39 40 41 40 38 38 39
19 19 20 20 20 20 20 20 20 18 17 16 16 16 18 21 22 24 23 23 23 22 22 23 24 25 26 28 29 29 30 31 29 27 27 29 31 32 34 36 36 35 35 34 34 36 38 39 40 41 42 43 45 47 46 45 45 47 49 49 49 49 49 47 47 48 48 49 50 52 53 54 53 47 41 41 41 39 39 40 41 40 38 37 38
20 20 21 22 22 22 22 23 23 22 21 21 20 19 20 23 25 27 27 27 27 27 26 27 26 26 26 28 30 31 33 34 35 33 31 32 33 33 33 35 37 37 36 35 35 36 38 40 42 43 44 45 47 49 49 48 48 49 51 51 52 52 52 52 52 51 50 49 51 52 53 54 53 45 39 40 41 39 39 39 41 40 37 35 36
22 21 21 22 22 22 23 24 25 25 24 25 24 23 23 24 27 28 29 31 31 30 30 30 29 29 29 29 30 31 33 35 38 39 38 37 37 35 34 35 38 40 38 37 37 38 39 41 43 44 45 46 48 50 51 50 50 51 52 53 54 54 54 55 55 54 51 52 53 54 54 56 52 44 38 39 39 39 39 39 40 41 38 35 35
23 22 22 22 22 23 24 25 26 27 27 27 27 27 27 28 29 29 30 32 32 32 33 33 33 33 33 32 32 32 32 35 38 41 42 42 42 40 38 37 39 40 40 40 41 40 41 43 44 45 46 47 49 52 52 52 52 53 54 55 56 56 56 56 57 57 56 56 55 55 57 58 54 45 37 36 38 38 38 38 40 41 39 36 35
Wind_Direction
101 100 101 102 99 95 91 87 82 76 73 71 70 69 72 72 69 70 71 70 70 70 68 67 67 66 66 68 70 72 70 60 53 53 55 54 52 51 47 42 41 37 35 33 33 34 30 26 28 29 30 31 28 26 27 26 27 28 27 27 21 15 9 0 351 343 337 332 329 329 328 327 327 327 325 324 322 319 315 311 310 309 309 312 317
100 98 100 102 98 96 93 85 77 72 68 66 66 64 68 71 65 59 59 63 67 67 66 64 62 61 60 60 62 63 65 63 53 48 48 47 45 47 48 44 41 37 33 31 29 28 25 21 22 23 20 22 26 28 28 26 25 24 22 24 22 20 20 18 19 23 22 9 353 346 343 340 339 339 337 334 331 326 320 314 308 305 304 304 306
103 99 97 97 95 93 91 84 76 71 65 59 57 57 56 58 58 54 52 54 59 61 62 62 58 55 53 52 55 54 56 60 57 49 45 42 39 38 39 38 36 36 34 30 27 24 22 20 18 20 17 16 23 29 31 29 25 22 21 21 19 19 19 17 19 25 30 28 14 4 358 354 350 349 346 343 341 338 333 324 313 303 299 298 298
109 101 94 86 82 80 76 74 72 67 61 54 50 50 46 45 48 49 49 47 50 50 51 51 49 48 45 42 45 46 45 49 51 48 43 40 39 35 32 29 25 26 30 29 27 24 23 23 18 17 17 16 21 27 29 29 26 23 22 21 19 18 15 10 10 15 19 20 16 10 5 2 359 358 355 352 350 348 346 340 327 311 299 296 296
116 103 93 82 76 71 64 61 62 58 53 49 47 46 39 35 35 34 40 44 45 42 37 36 37 37 35 32 33 35 35 34 40 44 40 35 34 34 30 24 18 16 20 22 22 23 23 25 23 18 18 19 20 22 25 24 23 24 23 22 20 17 14 10 9 14 16 15 14 11 7 6 7 8 7 3 360 358 358 357 351 336 315 302 298
121 108 93 81 71 59 49 43 42 44 44 42 43 44 35 27 26 21 27 38 41 36 27 24 24 23 25 23 21 24 25 21 26 36 38 33 27 30 29 22 17 12 14 15 15 18 18 22 25 21 19 20 22 24 26 23 21 23 24 26 23 16 13 12 13 17 18 16 17 16 12 9 10 11 11 8 5 3 3 3 4 359 347 328 311
128 117 99 80 63 47 39 33 29 30 31 32 35 37 31 22 25 27 25 32 39 35 27 18 9 9 12 11 11 14 16 13 12 19 32 33 25 24 25 23 18 12 15 15 12 12 12 13 17 20 20 20 22 25 26 24 21 23 24 25 24 20 16 14 15 20 21 16 15 18 15 11 8 9 9 8 6 4 3 4 5 6 3 354 340
128 120 104 73 55 44 37 34 29 28 24 26 33 30 30 30 30 34 35 35 36 35 31 15 359 359 1 359 1 3 4 9 7 7 19 28 27 22 18 20 18 15 17 16 13 10 7 6 7 11 17 19 21 24 23 22 21 21 22 18 13 12 13 14 17 20 21 16 12 13 13 10 7 6 6 6 5 4 3 3 4 4 5 2 356
131 123 102 61 50 43 39 37 32 31 27 29 39 34 31 37 37 39 43 42 37 36 32 17 4 359 357 354 354 354 356 5 6 3 10 22 27 23 15 13 15 17 17 16 14 11 6 3 2 4 8 13 17 20 19 17 16 14 14 10 3 360 357 5 13 14 12 10 8 6 6 5 3 1 1 1 0 0 0 0 1 0 359 358 355
134 124 96 61 54 47 44 42 37 37 34 35 46 47 41 43 47 47 47 46 44 43 39 32 27 12 6 4 358 356 357 3 5 2 8 19 22 23 19 12 12 17 14 13 13 13 11 4 1 1 2 6 12 16 16 11 8 5 6 6 5 4 358 353 359 1 359 359 358 357 357 357 356 356 355 355 354 354 354 354 355 355 353 351 347
138 123 96 64 53 49 48 45 41 42 40 42 50 53 52 52 53 55 54 53 51 49 47 44 39 25 16 11 3 359 359 2 2 1 9 16 16 18 20 17 16 18 11 9 12 12 15 12 7 6 4 5 8 11 14 10 4 2 3 6 9 11 7 354 345 344 345 347 348 350 351 351 351 352 351 351 350 350 349 349 349 347 346 345 342
145 130 100 71 56 52 51 47 42 45 47 51 57 60 61 59 57 57 56 55 53 50 48 44 36 24 15 8 2 358 356 360 359 359 5 9 13 10 8 15 16 17 15 12 15 16 19 19 18 18 15 13 13 15 17 14 10 7 6 8 9 12 13 4 349 340 339 341 342 344 345 345 345 347 347 347 346 345 345 344 343 341 338 337 336
157 144 111 74 57 50 53 50 42 47 52 56 61 63 62 58 52 50 51 52 54 52 47 41 32 22 13 6 2 358 354 359 359 359 1 3 11 5 356 5 5 13 24 19 20 25 25 27 27 28 29 26 24 25 24 22 21 17 13 11 10 10 12 11 3 356 353 351 347 344 343 342 342 342 342 341 340 339 338 337 336 334 331 329 328
169 161 131 81 55 42 51 55 44 48 57 59 59 56 56 52 43 40 46 50 51 50 44 35 28 20 17 13 9 6 0 3 6 5 5 7 14 12 1 1 358 11 26 22 22 28 29 29 30 32 34 34 33 32 30 27 27 25 21 19 16 15 13 11 9 7 6 3 357 353 351 349 347 344 342 339 336 335 334 332 330 328 326 324 322
180 177 156 106 64 35 43 50 39 40 52 56 52 45 46 44 39 37 43 48 46 42 36 29 24 21 24 25 19 14 7 9 21 19 14 16 20 20 10 2 359 7 16 18 21 24 22 21 24 27 29 30 32 33 34 31 28 27 24 24 23 21 18 15 13 10 7 5 2 360 357 353 351 348 345 342 338 335 332 329 328 326 324 321 319
187 189 175 144 118 60 43 40 29 32 37 39 43 44 44 40 37 35 36 40 38 33 29 22 18 20 23 27 21 16 11 12 22 23 14 12 15 15 7 358 357 360 7 13 15 16 15 13 16 20 20 20 22 25 28 29 29 27 22 22 24 22 19 15 13 12 9 7 4 1 357 353 351 348 345 343 339 335 331 328 325 323 320 317 315
191 196 188 167 154 140 121 66 43 38 27 14 27 49 52 47 39 32 28 32 35 29 20 9 7 13 17 20 16 9 7 6 8 12 5 358 358 1 355 350 348 350 1 5 2 4 8 7 9 11 12 12 13 15 18 20 22 22 19 16 16 15 13 10 8 8 6 3 360 357 354 351 348 346 343 341 338 336 334 331 327 324 320 316 313
194 199 191 174 162 154 170 92 66 52 26 356 10 48 55 52 43 32 25 27 31 20 7 360 0 9 14 15 14 7 6 5 2 4 2 354 351 351 348 342 337 339 349 351 348 353 0 2 0 0 3 3 3 4 7 10 11 10 8 5 1 360 360 0 359 357 355 353 350 348 347 345 343 340 338 336 335 333 331 329 327 325 323 320 317
195 197 191 183 159 124 159 22 67 60 24 343 355 44 56 51 45 34 25 21 18 7 358 359 3 9 20 24 25 22 19 20 13 5 4 3 356 350 346 338 331 333 337 338 339 346 354 357 353 351 354 356 356 357 356 357 358 355 351 346 343 342 343 345 346 344 343 341 341 340 339 338 336 334 333 331 330 329 327 326 324 323 322 321 319
196 196 198 197 176 118 295 296 39 61 342 317 335 25 46 40 42 34 23 12 4 357 354 0 10 19 35 39 35 35 33 29 24 14 7 8 6 358 350 338 332 334 332 330 334 340 348 351 349 349 351 352 353 353 350 349 348 346 340 333 329 330 332 334 335 334 334 333 333 333 332 332 330 329 328 328 327 326 324 323 321 320 319 318 316
199 201 212 213 208 184 300 301 310 288 266 283 309 349 14 6 26 26 16 3 354 352 352 1 18 30 39 42 39 40 38 30 26 20 13 14 16 10 359 344 337 336 330 325 326 332 342 348 348 348 348 348 350 351 352 352 351 348 341 333 328 328 330 331 331 331 330 331 331 331 330 329 329 329 329 328 327 325 324 322 320 319 318 316 314
205 210 221 227 233 247 289 303 302 287 270 275 290 304 301 306 346 11 10 360 350 347 350 3 22 32 34 34 37 37 36 32 25 20 17 15 16 14 6 354 345 340 337 335 330 331 339 343 344 345 346 347 348 350 352 350 348 347 343 337 334 334 334 334 333 333 334 334 333 331 331 330 330 332 332 332 331 330 329 328 326 324 322 319 316
209 216 224 229 238 249 273 293 303 296 278 272 279 286 285 286 303 342 0 356 347 343 345 358 18 28 29 24 26 26 22 23 20 15 13 10 6 4 359 349 341 337 337 339 339 337 337 337 339 343 345 347 347 346 346 345 341 340 340 339 339 337 336 336 336 336 336 335 334 333 332 333 334 335 336 336 337 337 336 335 333 332 329 325 323
213 222 227 233 240 246 260 283 304 305 295 285 281 284 283 280 286 311 346 349 343 340 339 347 1 14 18 13 12 12 3 2 1 357 356 355 354 355 352 346 341 337 336 337 337 336 336 336 338 342 344 345 344 341 339 339 337 336 337 337 336 335 334 335 335 335 335 334 334 334 334 335 337 338 340 341 342 342 341 340 339 337 333 330 328
221 227 232 238 244 247 255 273 295 310 312 305 293 286 282 280 279 289 319 335 336 334 334 338 343 347 359 1 359 358 351 348 348 345 343 343 346 348 349 350 348 345 343 342 338 336 337 338 340 343 345 343 340 337 335 335 334 332 333 334 333 332 332 333 333 332 332 332 333 335 336 337 339 341 343 344 345 345 344 343 341 339 335 333 331
230 233 235 239 243 246 250 260 275 296 313 317 307 294 287 284 281 281 291 312 326 328 328 331 331 334 347 355 353 350 348 348 348 347 347 345 345 347 349 349 350 348 346 345 344 342 342 342 342 343 343 339 336 335 333 331 331 331 331 333 332 330 330 330 330 330 331 332 334 336 338 340 342 344 345 346 346 346 346 345 343 341 338 337 333
241 241 242 243 245 248 249 254 264 279 298 313 315 307 297 289 284 282 284 293 312 319 319 321 322 326 338 351 351 348 349 351 351 352 352 351 349 349 349 348 346 345 344 344 346 345 343 342 341 339 338 336 334 334 333 331 331 330 330 330 329 328 328 329 330 330 331 333 336 339 341 343 345 346 347 348 349 349 348 347 346 344 342 340 336
246 245 247 249 250 251 253 257 262 271 286 301 311 313 307 298 290 284 283 285 293 306 311 312 311 313 323 338 344 344 348 350 350 350 349 350 351 349 348 347 345 345 344 345 346 347 345 341 339 338 337 337 336 334 334 333 332 331 329 329 328 328 329 329 330 331 333 335 339 341 343 345 346 348 350 352 352 352 352 351 350 348 346 343 339
250 249 249 251 252 254 256 258 262 266 275 286 296 304 308 307 299 290 283 281 283 290 300 304 302 299 303 313 325 334 342 347 346 345 343 343 345 345 346 347 347 347 346 346 345 346 347 343 341 341 340 338 338 337 337 336 334 333 331 331 330 330 330 330 332 333 335 338 340 341 343 345 346 349 352 354 355 355 354 354 352 351 348 345 341
259 257 254 253 253 255 257 259 262 264 266 272 282 290 297 303 304 298 288 279 278 280 286 294 295 292 289 293 304 317 331 343 344 341 339 339 340 340 341 343 345 346 345 345 344 344 345 344 341 341 341 341 340 339 337 336 336 336 335 334 333 332 332 331 332 334 336 339 340 341 343 343 346 350 353 355 356 356 356 355 354 352 350 347 344
264 264 263 262 259 258 261 262 264 265 265 267 271 278 285 291 296 299 293 283 277 275 277 281 286 286 283 283 288 297 312 328 337 337 336 337 337 337 338 338 339 341 343 344 344 343 344 345 342 339 339 340 342 341 340 339 339 340 338 337 335 333 332 332 333 335 337 339 340 341 341 342 345 350 353 354 355 356 356 356 354 353 350 348 345
265 267 269 269 267 264 263 265 267 267 267 267 269 272 276 281 285 290 293 289 280 273 272 273 276 279 279 277 279 284 293 306 318 326 330 332 333 333 334 334 334 336 340 343 344 343 342 342 343 342 340 339 340 342 343 342 341 341 339 337 334 332 331 332 334 336 337 338 339 340 340 340 344 348 351 353 354 355 356 355 354 353 351 349 346
266 268 270 271 272 272 270 269 269 270 270 270 270 271 271 274 277 281 286 288 284 277 271 270 270 272 274 275 275 278 283 291 301 310 317 323 325 326 327 329 330 332 335 338 340 340 339 338 337 339 340 340 340 341 341 341 340 339 337 336 334 332 331 333 336 337 338 338 338 337 337 338 341 346 349 351 353 355 355 355 354 353 351 349 346
268 270 271 272 273 273 273 272 270 270 271 271 270 270 270 270 271 274 277 281 284 283 278 271 268 268 270 272 273 276 281 286 292 299 305 311 316 318 321 323 326 328 330 332 334 336 337 337 335 334 336 339 341 342 342 341 342 342 340 339 338 336 334 334 338 340 339 337 335 334 335 336 339 344 348 350 352 353 354 354 353 352 351 349 345
270 271 272 273 274 273 273 273 271 269 268 269 269 268 267 268 268 269 271 275 280 285 285 279 274 271 269 270 273 275 279 283 288 293 297 302 307 311 314 317 320 323 325 327 329 330 331 333 334 334 335 337 340 343 344 344 345 345 346 345 344 342 338 336 338 340 338 336 333 332 332 334 337 342 346 349 351 352 353 353 352 352 351 348 345
269 272 275 277 278 276 273 271 270 269 266 266 267 266 266 267 268 268 269 272 276 281 286 287 285 280 274 272 273 274 277 281 285 289 293 297 301 304 307 310 313 316 319 322 323 325 326 327 329 330 332 336 339 341 344 345 346 346 347 348 348 346 342 338 337 338 336 334 332 331 331 333 337 340 344 348 350 351 352 352 352 351 350 348 344
270 276 281 282 281 278 274 269 267 267 266 265 266 267 267 267 269 270 270 270 273 278 283 288 290 289 283 277 275 276 278 279 281 285 288 292 296 300 303 305 307 309 312 315 318 320 321 322 323 325 326 330 334 337 339 341 343 344 345 346 348 347 345 341 337 336 335 333 332 332 332 334 337 339 342 346 348 350 350 351 351 351 350 347 343
276 282 285 286 283 279 275 272 268 266 266 265 265 266 266 267 268 271 271 270 271 273 278 283 287 291 290 284 279 278 278 278 279 281 284 286 290 295 298 300 302 304 306 309 312 315 317 317 318 320 322 325 328 331 335 337 338 339 341 343 346 346 345 343 339 335 333 333 333 333 333 334 336 337 339 343 346 348 349 349 350 351 349 346 343
282 287 288 287 286 281 277 277 273 269 268 268 267 266 266 267 267 269 271 270 269 270 272 276 280 285 288 286 282 279 277 278 278 279 281 282 285 289 293 296 297 299 302 305 307 309 312 314 315 316 318 320 323 327 330 334 334 334 336 338 341 343 344 343 340 337 335 334 334 334 333 335 336 337 338 341 344 346 347 348 349 350 349 347 343
284 289 291 290 288 284 281 282 282 278 275 272 271 269 268 267 266 267 269 270 268 267 268 270 273 278 282 284 284 281 278 276 276 278 280 281 283 286 289 292 295 296 298 301 304 306 308 310 311 313 315 316 319 322 326 329 330 331 332 334 335 338 340 341 341 340 338 337 336 334 333 334 335 335 337 340 342 344 345 345 348 349 348 347 344
284 291 295 294 290 286 285 287 288 289 284 278 274 271 268 267 265 264 266 269 269 267 266 268 271 274 278 282 284 283 280 276 275 277 280 283 284 285 287 290 293 294 296 298 301 303 305 308 308 310 312 313 315 318 321 324 325 327 329 331 332 333 336 337 339 339 339 339 339 335 333 333 334 334 336 338 340 342 343 343 346 348 348 347 345
287 293 296 294 289 286 286 285 286 288 286 281 277 274 271 270 269 267 266 268 271 271 269 269 271 274 276 279 282 283 282 280 279 279 282 284 285 286 288 291 293 294 296 297 298 300 302 305 305 307 309 311 312 315 317 318 320 322 324 326 328 330 331 333 335 336 337 338 339 337 335 334 334 333 335 337 339 340 341 341 343 346 347 347 345
289 294 293 289 284 283 283 282 283 284 283 282 282 282 281 280 279 278 275 273 275 278 278 276 274 276 277 279 281 282 283 285 284 283 283 285 286 288 290 291 292 294 296 295 295 297 299 301 302 303 306 308 310 313 315 315 316 317 318 320 323 326 328 330 332 333 334 335 337 337 335 334 333 332 333 336 337 339 338 338 340 345 347 346 345
287 288 286 282 279 278 278 277 277 277 279 281 282 285 287 287 287 286 285 284 283 285 286 286 284 282 282 284 285 286 287 287 286 285 285 286 287 287 288 289 289 292 294 294 294 296 298 298 299 300 303 305 307 309 311 313 313 313 314 317 320 323 325 327 329 331 333 333 334 336 336 335 333 331 332 334 336 337 337 335 337 342 345 346 345
280 281 279 277 275 274 273 271 269 270 272 276 281 285 287 288 288 287 287 288 289 290 292 293 293 292 291 291 292 293 293 291 289 287 286 285 286 286 286 286 286 288 289 291 293 295 296 295 296 298 300 301 303 306 308 310 311 311 312 315 318 320 321 323 326 329 331 331 331 333 336 337 334 330 329 331 334 335 335 334 335 339 343 345 345
275 275 273 271 271 270 269 269 266 264 263 266 274 280 282 284 285 286 287 289 292 295 297 297 299 300 299 299 298 298 297 295 293 290 287 284 283 283 284 284 285 286 285 287 290 292 292 293 294 296 297 298 300 302 304 307 308 309 310 312 315 316 318 321 322 324 327 329 328 326 327 331 332 329 326 328 331 333 334 332 332 335 340 344 344
267 267 266 267 268 267 267 268 266 260 255 257 261 268 275 278 280 283 288 292 296 299 300 302 304 305 305 305 305 303 301 298 296 293 289 286 282 281 282 284 285 285 283 284 287 288 289 291 293 293 294 295 297 299 301 303 305 306 307 309 312 313 315 318 318 318 322 324 324 322 321 325 328 326 323 325 328 330 332 331 330 332 338 342 344
262 262 263 264 265 264 263 265 266 263 260 258 257 259 265 271 276 282 287 292 296 300 302 303 303 304 305 305 304 303 302 300 299 297 292 288 284 282 283 284 285 285 284 284 285 285 286 288 289 291 291 292 294 296 298 300 302 303 304 306 308 310 312 314 314 314 317 319 321 321 320 323 326 324 321 322 325 327 330 329 328 330 336 341 343
260 259 259 261 264 267 267 267 269 269 267 267 266 265 265 268 274 281 286 290 293 297 298 299 300 301 301 300 299 299 299 300 300 297 294 291 288 285 284 284 284 284 284 284 284 283 284 284 285 287 288 289 291 293 295 297 299 300 301 303 305 306 308 310 310 311 312 315 319 319 318 321 324 322 318 320 321 323 327 328 327 328 334 340 342
259 259 262 266 271 275 276 274 272 270 271 273 276 278 277 276 278 281 285 287 290 292 293 293 294 295 295 295 294 295 297 297 296 295 293 292 290 288 286 285 285 285 286 286 284 282 281 281 281 283 284 286 287 289 291 294 296 297 299 300 302 303 305 307 307 309 310 312 315 317 317 319 321 318 315 317 318 320 324 326 326 326 331 337 341
261 264 268 273 277 279 280 277 272 270 270 272 275 280 283 284 285 285 284 284 286 289 290 289 290 290 291 291 291 292 294 293 292 292 291 289 288 288 286 284 285 288 289 286 284 282 282 281 281 281 282 283 285 286 289 291 293 295 296 298 299 301 302 304 305 307 309 310 312 314 314 316 319 316 313 314 316 318 322 324 324 324 328 334 339
Height
5929 5931 5932 5932 5932 5932 5933 5933 5934 5934 5934 5934 5934 5934 5934 5934 5935 5935 5935 5935 5934 5934 5933 5932 5932 5932 5932 5932 5932 5932 5931 5931 5930 5930 5930 5930 5930 5929 5929 5929 5928 5928 5927 5927 5926 5926 5926 5925 5925 5925 5924 5924 5924 5925 5925 5925 5925 5925 5925 5925 5925 5924 5924 5924 5923 5923 5923 5923 5923 5923 5923 5923 5923 5922 5921 5920 5920 5919 5919 5918 5917 5917 5917 5917 5917
5930 5931 5932 5933 5933 5933 5934 5934 5935 5935 5935 5935 5935 5935 5936 5936 5936 5936 5936 5935 5935 5934 5934 5933 5933 5933 5933 5933 5933 5933 5933 5932 5932 5931 5931 5931 5931 5930 5930 5930 5929 5928 5928 5927 5927 5927 5926 5926 5925 5925 5925 5925 5925 5926 5926 5926 5926 5925 5925 5924 5924 5924 5923 5923 5923 5922 5922 5922 5922 5922 5922 5922 5922 5921 5920 5920 5919 5918 5918 5917 5916 5916 5916 5916 5916
5931 5932 5933 5933 5934 5935 5935 5936 5936 5936 5936 5936 5936 5936 5936 5936 5936 5936 5936 5936 5935 5935 5935 5934 5934 5934 5934 5934 5934 5934 5934 5934 5933 5933 5932 5932 5931 5931 5930 5930 5930 5929 5929 5928 5928 5927 5927 5926 5926 5926 5926 5925 5926 5927 5927 5927 5926 5925 5925 5924 5924 5924 5923 5923 5923 5922 5922 5922 5921 5921 5921 5921 5921 5920 5920 5919 5918 5918 5917 5916 5916 5915 5915 5914 5914
5933 5933 5933 5934 5934 5935 5935 5936 5936 5936 5936 5936 5936 5936 5936 5935 5936 5936 5936 5936 5936 5936 5935 5935 5935 5935 5935 5935 5935 5935 5935 5935 5935 5934 5933 5933 5933 5932 5931 5930 5930 5930 5929 5929 5928 5928 5928 5927 5927 5926 5926 5926 5927 5927 5927 5927 5926 5925 5925 5925 5925 5924 5924 5923 5923 5922 5922 5922 5922 5921 5921 5921 5921 5920 5919 5919 5918 5917 5916 5915 5915 5914 5914 5913 5913
5934 5934 5934 5935 5935 5935 5935 5936 5936 5937 5937 5937 5936 5936 5936 5936 5936 5936 5937 5937 5936 5936 5936 5936 5936 5936 5936 5936 5936 5936 5935 5935 5936 5935 5935 5934 5934 5933 5932 5931 5931 5930 5930 5930 5929 5929 5929 5928 5927 5927 5927 5927 5927 5928 5928 5927 5926 5925 5925 5925 5925 5924 5924 5924 5924 5923 5923 5922 5922 5922 5922 5921 5921 5920 5919 5918 5918 5917 5916 5915 5914 5913 5913 5913 5913
5935 5935 5935 5936 5936 5936 5936 5936 5937 5937 5937 5937 5937 5936 5936 5936 5937 5937 5937 5937 5937 5936 5937 5937 5937 5936 5936 5937 5937 5936 5936 5935 5936 5936 5935 5935 5934 5934 5933 5933 5932 5931 5931 5930 5930 5930 5929 5929 5928 5928 5928 5928 5928 5928 5928 5927 5926 5926 5925 5925 5925 5924 5924 5924 5924 5923 5923 5923 5923 5922 5922 5922 5921 5920 5919 5919 5918 5917 5916 5915 5914 5913 5913 5913 5912
5936 5937 5937 5937 5937 5937 5937 5937 5937 5937 5937 5937 5937 5936 5936 5937 5937 5937 5937 5938 5937 5937 5937 5937 5937 5937 5937 5937 5937 5936 5936 5936 5935 5935 5935 5935 5935 5934 5934 5934 5933 5933 5932 5932 5931 5931 5930 5929 5929 5928 5928 5928 5928 5929 5928 5927 5927 5926 5926 5926 5925 5924 5924 5924 5924 5924 5924 5923 5923 5923 5923 5922 5921 5920 5920 5919 5918 5917 5916 5916 5915 5914 5913 5913 5912
5937 5938 5938 5938 5938 5938 5938 5938 5938 5938 5938 5937 5937 5936 5936 5936 5937 5937 5937 5938 5937 5938 5938 5938 5938 5938 5937 5937 5937 5936 5936 5936 5935 5935 5935 5935 5935 5934 5934 5934 5933 5933 5933 5933 5932 5931 5930 5930 5929 5929 5929 5929 5929 5929 5929 5928 5927 5927 5927 5926 5925 5924 5924 5924 5924 5924 5924 5924 5923 5923 5923 5922 5922 5921 5920 5919 5918 5918 5917 5916 5915 5914 5914 5913 5912
5938 5938 5938 5938 5939 5939 5939 5939 5939 5939 5938 5938 5937 5936 5936 5937 5937 5937 5938 5938 5938 5938 5938 5939 5939 5938 5938 5938 5937 5937 5936 5936 5936 5935 5935 5935 5934 5934 5934 5934 5934 5933 5934 5933 5933 5932 5931 5930 5929 5929 5929 5929 5929 5929 5929 5928 5928 5927 5927 5926 5925 5925 5924 5924 5924 5924 5924 5924 5923 5923 5923 5922 5922 5921 5920 5919 5919 5918 5917 5916 5916 5915 5914 5913 5913
5938 5939 5939 5939 5939 5939 5939 5939 5939 5939 5939 5938 5937 5937 5937 5937 5938 5938 5938 5939 5939 5939 5939 5939 5939 5939 5939 5938 5937 5937 5936 5936 5936 5935 5935 5935 5934 5934 5934 5934 5934 5934 5933 5933 5933 5932 5931 5930 5930 5930 5929 5929 5929 5929 5929 5928 5928 5927 5927 5927 5926 5925 5924 5924 5924 5924 5924 5924 5923 5923 5923 5922 5922 5921 5920 5920 5919 5918 5918 5917 5916 5915 5914 5914 5913
5939 5939 5939 5939 5939 5940 5940 5940 5940 5939 5939 5938 5938 5938 5938 5938 5938 5939 5939 5940 5940 5940 5940 5940 5940 5939 5939 5939 5938 5937 5937 5937 5936 5936 5935 5935 5935 5935 5934 5934 5934 5934 5933 5933 5932 5932 5931 5931 5930 5930 5929 5929 5929 5929 5929 5929 5929 5928 5927 5927 5927 5926 5925 5924 5924 5924 5924 5924 5924 5923 5923 5922 5922 5921 5921 5920 5919 5918 5918 5917 5915 5915 5914 5913 5913
5939 5940 5940 5940 5940 5940 5940 5940 5940 5940 5940 5939 5939 5939 5939 5939 5939 5940 5940 5940 5941 5941 5941 5940 5940 5940 5940 5939 5939 5938 5938 5937 5937 5936 5936 5936 5935 5935 5934 5934 5934 5934 5934 5933 5932 5932 5931 5931 5930 5930 5930 5929 5929 5929 5929 5929 5929 5928 5927 5927 5927 5927 5926 5925 5925 5924 5924 5924 5924 5923 5923 5922 5922 5921 5920 5919 5919 5918 5917 5916 5915 5914 5913 5913 5912
5940 5940 5940 5940 5940 5940 5941 5941 5941 5941 5940 5940 5940 5940 5940 5940 5940 5941 5941 5941 5942 5942 5941 5941 5941 5941 5940 5939 5939 5938 5938 5937 5937 5937 5936 5936 5936 5935 5935 5935 5934 5934 5934 5933 5933 5932 5932 5931 5931 5931 5930 5930 5929 5929 5929 5929 5929 5928 5928 5927 5927 5927 5926 5925 5925 5925 5924 5924 5923 5923 5923 5922 5921 5921 5920 5919 5918 5917 5916 5916 5915 5914 5913 5912 5911
5940 5940 5940 5941 5941 5941 5941 5941 5942 5941 5941 5941 5941 5941 5941 5941 5941 5941 5942 5942 5942 5942 5942 5942 5942 5941 5941 5940 5939 5938 5938 5938 5937 5937 5936 5936 5936 5936 5935 5935 5934 5934 5934 5934 5933 5933 5932 5932 5932 5931 5931 5930 5930 5930 5930 5930 5929 5929 5928 5927 5927 5927 5926 5925 5925 5925 5924 5924 5923 5923 5922 5921 5921 5920 5919 5918 5917 5916 5915 5915 5914 5913 5912 5911 5910
5940 5940 5941 5941 5941 5941 5942 5942 5942 5942 5942 5942 5941 5941 5941 5941 5942 5942 5942 5943 5943 5943 5943 5943 5943 5942 5941 5940 5939 5938 5938 5938 5937 5937 5937 5936 5936 5936 5936 5936 5935 5935 5935 5934 5934 5933 5933 5932 5932 5932 5932 5931 5931 5930 5930 5930 5929 5929 5928 5928 5927 5927 5926 5926 5925 5924 5924 5924 5923 5922 5922 5921 5920 5919 5919 5918 5917 5916 5915 5914 5913 5912 5911 5910 5909
5940 5940 5941 5941 5942 5942 5942 5942 5942 5942 5942 5942 5942 5942 5942 5942 5942 5943 5943 5944 5944 5944 5943 5943 5943 5942 5941 5940 5940 5939 5938 5938 5938 5937 5937 5937 5937 5936 5936 5936 5936 5935 5935 5935 5935 5934 5934 5933 5933 5933 5932 5932 5931 5930 5930 5930 5929 5929 5928 5928 5928 5927 5927 5926 5925 5925 5924 5923 5922 5922 5921 5920 5919 5918 5917 5917 5916 5915 5914 5913 5912 5911 5910 5909 5908
5940 5940 5941 5942 5942 5942 5942 5942 5942 5942 5942 5942 5942 5943 5943 5943 5943 5944 5944 5944 5944 5944 5944 5943 5943 5942 5942 5941 5940 5939 5939 5938 5938 5938 5937 5937 5937 5937 5936 5936 5936 5936 5936 5936 5935 5935 5935 5934 5934 5933 5933 5932 5932 5931 5930 5930 5930 5929 5929 5928 5928 5928 5927 5926 5925 5925 5924 5923 5922 5921 5920 5919 5918 5917 5916 5915 5914 5913 5912 5911 5910 5909 5909 5908 5907
5940 5940 5941 5942 5942 5942 5943 5942 5942 5942 5942 5943 5943 5943 5943 5944 5944 5945 5945 5945 5945 5945 5945 5944 5943 5943 5942 5941 5941 5940 5939 5939 5938 5938 5938 5937 5937 5937 5937 5936 5936 5936 5936 5936 5936 5936 5935 5935 5934 5934 5933 5933 5932 5931 5931 5930 5930 5930 5929 5929 5928 5928 5927 5927 5926 5925 5924 5923 5922 5921 5920 5919 5918 5917 5916 5914 5913 5912 5911 5910 5909 5908 5907 5906 5905
5940 5940 5941 5942 5942 5942 5943 5943 5942 5942 5943 5943 5944 5944 5944 5944 5945 5945 5946 5946 5946 5945 5945 5944 5944 5943 5942 5942 5941 5940 5940 5939 5939 5938 5938 5938 5938 5937 5937 5937 5936 5936 5936 5936 5936 5936 5935 5935 5934 5934 5933 5933 5932 5931 5931 5931 5930 5930 5930 5929 5928 5928 5927 5926 5926 5925 5924 5923 5922 5921 5919 5918 5917 5916 5915 5914 5913 5912 5910 5909 5908 5906 5905 5904 5902
5940 5940 5941 5942 5942 5942 5943 5943 5943 5943 5943 5944 5944 5944 5944 5944 5945 5945 5946 5946 5946 5946 5945 5944 5944 5943 5942 5942 5941 5941 5940 5940 5939 5939 5939 5939 5938 5938 5937 5937 5937 5937 5936 5935 5935 5935 5935 5935 5934 5934 5933 5933 5932 5931 5931 5930 5930 5930 5929 5929 5928 5927 5926 5925 5925 5924 5923 5922 5921 5920 5919 5918 5917 5915 5914 5913 5912 5911 5909 5908 5907 5905 5904 5903 5901
5940 5941 5941 5942 5942 5942 5943 5943 5943 5943 5944 5944 5944 5944 5944 5944 5945 5945 5946 5946 5946 5946 5945 5944 5944 5943 5943 5942 5942 5941 5940 5940 5940 5939 5939 5939 5939 5938 5937 5937 5936 5937 5937 5936 5935 5934 5934 5934 5934 5933 5933 5932 5931 5931 5930 5930 5929 5929 5928 5927 5927 5926 5925 5924 5924 5923 5922 5921 5920 5919 5918 5917 5916 5914 5913 5912 5911 5910 5909 5907 5906 5904 5903 5901 5900
5940 5941 5941 5942 5942 5942 5942 5942 5942 5943 5943 5943 5943 5944 5944 5944 5945 5945 5946 5946 5946 5946 5945 5944 5944 5943 5943 5942 5942 5941 5941 5941 5940 5940 5939 5939 5938 5938 5937 5937 5936 5936 5936 5936 5935 5934 5933 5933 5933 5933 5932 5931 5931 5930 5929 5929 5928 5927 5927 5926 5925 5925 5924 5923 5922 5921 5921 5920 5919 5917 5916 5915 5914 5913 5912 5911 5909 5908 5907 5905 5904 5902 5900 5899 5897
5940 5941 5941 5942 5942 5942 5942 5942 5943 5943 5943 5943 5943 5943 5944 5944 5944 5945 5946 5946 5946 5946 5945 5945 5944 5943 5943 5943 5942 5942 5942 5941 5941 5940 5940 5939 5939 5939 5938 5937 5937 5936 5936 5935 5935 5934 5933 5933 5932 5931 5931 5931 5930 5930 5929 5928 5927 5926 5926 5925 5924 5924 5923 5922 5921 5920 5919 5918 5917 5916 5915 5914 5913 5911 5910 5909 5907 5905 5904 5902 5901 5899 5897 5895 5894
5940 5941 5941 5942 5942 5942 5942 5943 5943 5943 5943 5943 5943 5943 5944 5944 5944 5944 5945 5945 5945 5945 5945 5945 5944 5943 5943 5943 5943 5942 5942 5941 5941 5940 5940 5940 5939 5939 5938 5938 5937 5936 5935 5935 5935 5934 5934 5933 5932 5931 5930 5930 5930 5929 5928 5928 5927 5926 5925 5925 5924 5923 5922 5922 5921 5920 5918 5917 5916 5915 5914 5912 5911 5910 5908 5906 5905 5903 5901 5900 5898 5896 5894 5892 5890
5940 5941 5942 5942 5942 5942 5943 5943 5943 5943 5943 5944 5944 5944 5944 5944 5944 5944 5944 5945 5945 5945 5944 5944 5944 5943 5943 5943 5943 5942 5942 5942 5941 5940 5940 5939 5939 5938 5938 5937 5937 5936 5935 5935 5934 5934 5933 5932 5932 5931 5930 5929 5929 5928 5928 5927 5927 5926 5925 5925 5924 5923 5922 5921 5920 5919 5918 5917 5915 5914 5913 5912 5910 5908 5907 5905 5903 5901 5899 5897 5895 5893 5891 5889 5887
5940 5941 5941 5942 5942 5942 5943 5943 5943 5943 5943 5944 5944 5944 5944 5944 5944 5944 5944 5944 5945 5944 5944 5943 5943 5943 5942 5942 5942 5942 5942 5941 5941 5940 5940 5939 5938 5938 5937 5937 5936 5936 5935 5935 5935 5934 5933 5932 5931 5930 5930 5930 5929 5928 5928 5927 5926 5926 5925 5924 5924 5923 5922 5921 5920 5919 5918 5916 5915 5914 5912 5910 5909 5907 5905 5903 5901 5899 5897 5894 5892 5890 5888 5885 5883
5940 5941 5941 5941 5942 5942 5942 5943 5943 5943 5943 5943 5943 5944 5944 5944 5944 5944 5944 5944 5944 5944 5944 5943 5943 5943 5942 5942 5942 5942 5942 5941 5940 5940 5939 5939 5938 5938 5937 5937 5936 5936 5936 5935 5935 5934 5933 5932 5932 5931 5930 5930 5929 5928 5928 5927 5926 5926 5925 5924 5923 5922 5921 5920 5919 5918 5917 5915 5914 5912 5911 5909 5907 5905 5904 5901 5899 5897 5894 5892 5889 5886 5884 5882 5879
5940 5940 5940 5941 5941 5941 5942 5942 5942 5943 5943 5943 5943 5943 5943 5943 5943 5943 5943 5943 5943 5943 5943 5943 5943 5943 5942 5942 5942 5942 5942 5941 5941 5940 5939 5939 5938 5938 5937 5937 5936 5936 5935 5935 5935 5934 5933 5932 5931 5931 5930 5929 5928 5927 5927 5926 5926 5925 5924 5923 5922 5921 5920 5919 5918 5917 5915 5914 5912 5910 5909 5907 5905 5903 5901 5899 5896 5894 5891 5888 5886 5883 5880 5878 5875
5938 5939 5940 5940 5940 5941 5941 5942 5942 5942 5942 5942 5942 5942 5942 5942 5942 5942 5943 5943 5943 5943 5943 5943 5942 5942 5942 5942 5942 5942 5941 5941 5940 5940 5939 5939 5938 5938 5937 5937 5936 5935 5935 5935 5934 5934 5933 5931 5930 5929 5928 5927 5927 5926 5925 5925 5924 5923 5923 5922 5920 5919 5918 5917 5916 5915 5913 5912 5910 5908 5906 5904 5903 5901 5899 5896 5893 5890 5888 5885 5882 5879 5876 5873 5871
5937 5938 5938 5939 5939 5940 5940 5941 5941 5941 5941 5942 5942 5942 5941 5941 5941 5941 5942 5942 5942 5942 5942 5942 5942 5942 5942 5942 5941 5941 5941 5941 5940 5940 5939 5939 5938 5937 5937 5936 5936 5935 5934 5934 5933 5933 5932 5931 5930 5929 5928 5926 5925 5925 5924 5924 5923 5922 5921 5920 5918 5917 5916 5915 5914 5912 5911 5909 5908 5906 5904 5902 5900 5898 5896 5893 5890 5887 5884 5881 5878 5875 5872 5869 5866
5935 5936 5937 5937 5938 5939 5939 5939 5940 5940 5941 5941 5941 5941 5941 5940 5940 5940 5940 5941 5941 5941 5941 5941 5941 5941 5941 5941 5941 5941 5940 5940 5940 5939 5939 5938 5938 5937 5936 5936 5935 5935 5934 5933 5932 5932 5931 5930 5929 5928 5927 5926 5925 5924 5923 5922 5922 5921 5919 5918 5917 5915 5914 5913 5911 5910 5909 5907 5905 5903 5901 5899 5898 5895 5893 5890 5887 5884 5881 5878 5875 5872 5869 5866 5863
5934 5935 5935 5936 5937 5937 5938 5938 5939 5939 5939 5939 5939 5940 5940 5939 5939 5939 5939 5939 5939 5939 5940 5940 5940 5940 5940 5940 5940 5940 5940 5940 5940 5939 5939 5938 5937 5936 5936 5935 5934 5934 5933 5933 5932 5931 5930 5929 5928 5927 5926 5925 5925 5924 5923 5921 5920 5919 5918 5917 5915 5913 5912 5911 5909 5908 5906 5904 5903 5901 5899 5897 5895 5893 5890 5888 5884 5881 5878 5875 5871 5868 5865 5862 5859
5933 5933 5934 5934 5935 5935 5936 5937 5937 5937 5938 5938 5938 5938 5938 5938 5938 5938 5938 5938 5938 5938 5938 5938 5939 5939 5939 5939 5939 5939 5939 5939 5939 5939 5938 5938 5937 5936 5935 5934 5933 5933 5932 5932 5931 5930 5929 5928 5928 5927 5926 5924 5923 5923 5922 5921 5919 5917 5916 5915 5914 5912 5910 5909 5907 5905 5904 5902 5900 5899 5897 5895 5892 5890 5888 5885 5881 5878 5875 5872 5869 5865 5862 5859 5856
5931 5932 5932 5932 5933 5933 5934 5935 5935 5936 5936 5936 5936 5937 5936 5937 5937 5937 5937 5937 5937 5937 5937 5937 5937 5938 5938 5938 5938 5938 5938 5938 5938 5938 5938 5937 5937 5936 5935 5933 5932 5932 5931 5931 5930 5929 5928 5927 5926 5925 5925 5924 5922 5921 5920 5919 5917 5916 5914 5912 5911 5910 5908 5907 5905 5904 5901 5899 5898 5896 5894 5892 5890 5888 5885 5882 5879 5875 5872 5869 5866 5863 5859 5856 5853
5929 5930 5930 5930 5931 5931 5932 5932 5933 5933 5934 5934 5934 5935 5935 5934 5935 5935 5935 5935 5935 5935 5935 5935 5935 5936 5936 5936 5937 5937 5937 5937 5937 5937 5937 5936 5936 5935 5934 5933 5932 5931 5930 5929 5929 5928 5927 5927 5925 5924 5923 5922 5921 5920 5918 5917 5915 5914 5912 5910 5909 5907 5906 5904 5903 5902 5900 5898 5896 5894 5892 5890 5888 5885 5883 5880 5876 5873 5870 5867 5864 5860 5857 5853 5850
5928 5928 5928 5929 5929 5929 5929 5929 5930 5930 5931 5931 5932 5932 5933 5933 5933 5933 5934 5934 5934 5934 5934 5934 5934 5935 5935 5935 5935 5935 5936 5936 5936 5936 5935 5935 5935 5934 5933 5932 5931 5930 5929 5928 5927 5927 5926 5925 5925 5924 5923 5921 5920 5918 5917 5916 5914 5912 5911 5909 5908 5906 5904 5902 5900 5899 5898 5896 5894 5892 5890 5888 5885 5883 5881 5878 5874 5871 5868 5864 5861 5858 5854 5851 5848
5926 5926 5927 5927 5927 5927 5926 5927 5927 5927 5928 5929 5929 5930 5931 5931 5931 5931 5932 5932 5932 5932 5932 5932 5933 5933 5933 5933 5933 5934 5934 5934 5934 5934 5934 5933 5933 5932 5931 5931 5930 5929 5928 5927 5926 5925 5924 5924 5923 5922 5921 5920 5919 5918 5916 5915 5914 5912 5910 5908 5907 5905 5904 5902 5899 5898 5896 5895 5893 5890 5888 5885 5883 5880 5878 5876 5872 5869 5865 5862 5859 5855 5852 5849 5846
5924 5925 5925 5925 5925 5924 5924 5924 5924 5925 5925 5925 5926 5927 5928 5929 5929 5929 5929 5930 5930 5930 5930 5931 5931 5931 5931 5932 5931 5932 5932 5932 5932 5932 5932 5931 5931 5930 5930 5929 5928 5927 5926 5926 5925 5924 5923 5922 5921 5920 5919 5918 5917 5916 5915 5914 5912 5910 5909 5907 5906 5904 5902 5901 5898 5896 5895 5893 5891 5889 5886 5883 5881 5878 5875 5873 5870 5866 5863 5859 5856 5853 5850 5847 5843
5923 5923 5923 5923 5923 5923 5922 5922 5922 5922 5922 5923 5924 5924 5925 5926 5927 5926 5926 5927 5928 5928 5928 5928 5928 5929 5929 5929 5929 5929 5930 5930 5929 5929 5929 5929 5929 5928 5928 5927 5927 5926 5925 5924 5923 5922 5922 5920 5919 5918 5917 5916 5915 5914 5913 5912 5910 5908 5907 5906 5904 5903 5901 5899 5896 5894 5892 5890 5889 5887 5884 5881 5879 5876 5873 5871 5867 5864 5860 5857 5853 5850 5847 5844 5841
5920 5921 5921 5921 5921 5920 5920 5920 5920 5920 5921 5921 5922 5922 5923 5923 5924 5924 5924 5924 5925 5926 5926 5926 5926 5926 5926 5927 5927 5927 5927 5927 5927 5926 5926 5927 5927 5927 5926 5925 5925 5924 5923 5922 5921 5920 5920 5919 5917 5916 5915 5914 5913 5912 5911 5910 5908 5906 5905 5903 5902 5901 5899 5897 5894 5892 5889 5887 5885 5883 5882 5880 5877 5874 5871 5869 5865 5862 5858 5855 5851 5848 5845 5842 5839
5918 5918 5918 5919 5919 5919 5919 5919 5919 5919 5920 5920 5920 5920 5920 5920 5921 5921 5921 5921 5922 5923 5923 5924 5924 5924 5924 5924 5924 5925 5925 5925 5925 5924 5924 5924 5925 5925 5924 5923 5923 5922 5921 5921 5920 5919 5917 5917 5915 5914 5913 5911 5910 5910 5908 5907 5906 5905 5903 5901 5899 5898 5897 5895 5893 5890 5887 5884 5882 5880 5878 5876 5874 5872 5869 5866 5863 5860 5856 5853 5849 5845 5842 5839 5836
5916 5916 5916 5916 5917 5917 5917 5918 5918 5918 5918 5918 5918 5918 5918 5918 5918 5919 5919 5919 5919 5920 5921 5922 5922 5922 5922 5922 5922 5922 5922 5923 5923 5923 5922 5922 5922 5922 5922 5921 5920 5920 5919 5918 5917 5916 5916 5915 5913 5912 5911 5909 5908 5908 5906 5905 5904 5903 5901 5899 5898 5896 5894 5893 5890 5888 5885 5882 5879 5877 5875 5873 5871 5868 5866 5863 5860 5857 5854 5850 5847 5843 5839 5836 5833
5913 5914 5914 5914 5915 5915 5916 5916 5917 5917 5917 5917 5917 5917 5917 5916 5916 5916 5917 5917 5917 5917 5918 5919 5920 5920 5920 5920 5920 5920 5921 5921 5921 5921 5920 5919 5919 5920 5919 5918 5918 5917 5917 5916 5915 5914 5913 5912 5911 5909 5908 5907 5905 5905 5904 5902 5901 5900 5899 5897 5895 5893 5892 5890 5888 5886 5883 5880 5877 5875 5872 5871 5868 5866 5863 5861 5858 5855 5852 5849 5845 5841 5837 5834 5831
5911 5911 5912 5913 5913 5914 5915 5915 5915 5916 5916 5916 5916 5916 5915 5915 5915 5915 5915 5915 5916 5916 5916 5917 5917 5918 5918 5918 5918 5918 5918 5919 5919 5918 5918 5917 5916 5916 5916 5915 5914 5914 5914 5913 5912 5912 5911 5910 5908 5907 5906 5904 5903 5902 5901 5900 5898 5897 5897 5895 5893 5891 5889 5888 5885 5883 5881 5878 5875 5872 5870 5868 5866 5863 5860 5858 5855 5852 5849 5846 5842 5838 5834 5831 5828
5909 5910 5910 5911 5912 5912 5913 5914 5914 5914 5915 5915 5915 5915 5914 5914 5914 5913 5913 5914 5914 5915 5915 5915 5915 5915 5916 5915 5915 5915 5916 5916 5916 5916 5915 5915 5913 5912 5912 5911 5911 5912 5911 5910 5909 5909 5908 5907 5906 5905 5903 5901 5900 5899 5897 5896 5895 5894 5893 5892 5891 5889 5887 5885 5883 5880 5878 5875 5872 5870 5867 5865 5863 5861 5858 5855 5852 5849 5846 5843 5839 5835 5831 5827 5824
5907 5908 5909 5909 5910 5911 5911 5912 5913 5913 5913 5914 5914 5914 5913 5913 5912 5912 5912 5912 5913 5914 5914 5913 5913 5913 5913 5913 5913 5913 5913 5913 5913 5913 5912 5912 5911 5909 5907 5907 5908 5908 5908 5908 5907 5906 5905 5903 5903 5902 5900 5898 5896 5895 5894 5893 5891 5890 5889 5888 5887 5885 5884 5882 5880 5877 5875 5873 5870 5867 5864 5862 5860 5858 5854 5852 5849 5846 5844 5840 5837 5833 5828 5824 5822
5906 5907 5907 5908 5909 5909 5909 5910 5911 5911 5912 5912 5913 5912 5912 5911 5911 5910 5910 5911 5912 5912 5912 5912 5912 5911 5911 5911 5911 5911 5910 5909 5910 5910 5909 5909 5907 5906 5904 5903 5904 5904 5904 5905 5905 5903 5901 5900 5899 5898 5897 5894 5892 5891 5890 5890 5888 5886 5884 5883 5883 5881 5880 5878 5876 5874 5872 5870 5867 5864 5860 5858 5856 5853 5851 5848 5845 5843 5841 5838 5835 5831 5826 5822 5819
5904 5905 5905 5906 5907 5907 5908 5908 5908 5909 5910 5911 5911 5911 5911 5910 5909 5908 5908 5908 5909 5910 5910 5910 5910 5910 5910 5909 5908 5908 5907 5906 5907 5907 5907 5905 5904 5903 5901 5900 5900 5899 5900 5901 5901 5899 5898 5897 5895 5894 5893 5891 5888 5887 5886 5886 5885 5882 5880 5878 5878 5877 5875 5874 5873 5871 5869 5866 5864 5860 5857 5854 5852 5849 5847 5845 5842 5839 5837 5835 5832 5829 5824 5819 5815
5901 5902 5903 5903 5904 5905 5905 5906 5906 5907 5908 5908 5909 5910 5910 5909 5907 5907 5906 5906 5906 5907 5907 5907 5907 5908 5907 5907 5906 5905 5904 5903 5903 5904 5903 5901 5900 5899 5898 5897 5896 5895 5895 5897 5896 5895 5894 5893 5891 5890 5889 5887 5884 5882 5881 5881 5881 5879 5876 5874 5873 5872 5871 5869 5868 5866 5865 5863 5861 5858 5854 5852 5850 5846 5843 5841 5839 5836 5833 5831 5829 5826 5822 5817 5813
5898 5899 5900 5901 5902 5902 5903 5904 5904 5905 5905 5905 5906 5907 5907 5907 5906 5906 5905 5903 5903 5903 5903 5903 5903 5904 5904 5904 5903 5902 5901 5900 5899 5899 5899 5897 5896 5896 5895 5894 5891 5890 5892 5892 5891 5890 5889 5888 5886 5885 5884 5882 5880 5878 5877 5876 5876 5874 5872 5870 5868 5867 5866 5864 5862 5861 5860 5858 5857 5854 5850 5848 5847 5844 5840 5837 5835 5832 5830 5828 5826 5824 5820 5815 5812
5895 5896 5897 5898 5899 5900 5900 5901 5902 5902 5903 5903 5903 5904 5904 5904 5904 5903 5902 5901 5900 5900 5900 5899 5899 5899 5899 5900 5899 5899 5898 5897 5895 5894 5894 5893 5892 5891 5891 5890 5888 5888 5888 5887 5885 5885 5885 5883 5881 5880 5879 5878 5876 5874 5872 5872 5871 5870 5868 5865 5863 5862 5861 5860 5858 5856 5855 5853 5851 5849 5846 5844 5843 5840 5836 5834 5831 5829 5827 5825 5823 5821 5818 5814 5810